Skip Page Navigation
NASA JPL Caltech
NASA Logo - Jet Propulsion Laboratory + View the NASA Portal
+ Center for Near-Earth Object Studies
JPL Home Earth Solar System Stars & Galaxies Technology
JPL Solar System Dynamics
BODIES ORBITS EPHEMERIDES TOOLS PHYSICAL DATA DISCOVERY FAQ SITE MAP
JPL Small-Body Database Browser
Search: [ help ]  
434025 (2001 SQ142)
Classification: Main-belt Asteroid          SPK-ID: 2434025
Ephemeris | Orbit Diagram | Orbital Elements | Mission Design | Physical Parameters | Discovery Circumstances ]

[ hide orbit diagram ]

For accurate long-term ephemerides, please instead use our Horizons system.This orbit viewer was implemented using two-body methods, and hence should not be used for determining accurate long-term trajectories (over several years or decades) or planetary encounter circumstances.


Orbital Elements at Epoch 2459200.5 (2020-Dec-17.0) TDB
Reference: JPL 16 (heliocentric ecliptic J2000)
 Element Value Uncertainty (1-sigma)   Units 
e .1157027392904815 5.5447e-08  
a 2.415799274866391 1.8921e-08 au
q 2.13628468118839 1.3456e-07 au
i 4.255550793916953 5.4224e-06 deg
node 310.1874081894036 0.00012148 deg
peri 18.11387926229067 0.00012695 deg
M 68.89857449574198 3.8047e-05 deg
tp 2458938.019265628342
(2020-Mar-29.51926563)
0.00014497 TDB
period 1371.480688321596
3.75
1.6113e-05
4.411e-08
d
yr
n .2624900248800181 3.0839e-09 deg/d
Q 2.695313868544391 2.1111e-08 au
  Orbit Determination Parameters
   # obs. used (total)      161  
   data-arc span      7002 days (19.17 yr)  
   first obs. used      2001-09-16  
   last obs. used      2020-11-17  
   planetary ephem.      DE441  
   SB-pert. ephem.      SB441-N16  
   condition code      0  
   norm. resid. RMS      .52909  
   source      ORB  
   producer      Otto Matic  
   solution date      2021-Apr-14 14:14:36  

Additional Information
 Earth MOID = 1.12326 au 
 Jupiter MOID = 2.59928 au 
 T_jup = 3.504 
[ show covariance matrix ]

Ephemeris | Orbit Diagram | Orbital Elements | Mission Design | Physical Parameters | Discovery Circumstances ]

Physical Parameter Table
Parameter Symbol Value Units Sigma Reference Notes
absolute magnitude H 17.2   n/a MPO477032  

434025 (2001 SQ142)          Discovered 2001-Sep-16 by LINEAR at Socorro
Reference: Last Updated: 2015-06-04

Alternate Designations
 2001 SQ142 = 2007 EW162 
Ephemeris | Orbit Diagram | Orbital Elements | Mission Design | Physical Parameters | Discovery Circumstances ]
ABOUT SSD CREDITS/AWARDS PRIVACY/COPYRIGHT GLOSSARY LINKS
FirstGov 2021-May-12 03:33 UT
(server date/time)  
NASA Home Page
Site Manager:   Ryan S. Park
Webmaster  Alan B. Chamberlin